TimeEST,TemperatureF,Dew PointF,Humidity,Sea Level PressureIn,VisibilityMPH,Wind Direction,Wind SpeedMPH,Gust SpeedMPH,PrecipitationIn,Events,Conditions,WindDirDegrees,DateUTC
12:15 AM,30.9,25.3,80,30.30,10.0,WNW,10.4,17.3,N/A,,Clear,290,2013-01-18 05:15:00
12:35 AM,30.2,23.5,76,30.31,10.0,WNW,13.8,18.4,N/A,,Clear,300,2013-01-18 05:35:00
12:55 AM,29.3,21.7,73,30.33,10.0,WNW,12.7,-,N/A,,Clear,300,2013-01-18 05:55:00
1:15 AM,28.4,21.4,75,30.34,10.0,WNW,11.5,19.6,N/A,,Clear,290,2013-01-18 06:15:00
1:35 AM,27.7,20.3,74,30.36,10.0,WNW,11.5,18.4,N/A,,Clear,300,2013-01-18 06:35:00
1:55 AM,27.1,20.3,75,30.37,10.0,WNW,10.4,-,N/A,,Clear,300,2013-01-18 06:55:00
2:15 AM,26.4,20.1,77,30.39,10.0,WNW,9.2,-,N/A,,Clear,300,2013-01-18 07:15:00
2:35 AM,25.7,19.4,77,30.40,10.0,NW,10.4,17.3,N/A,,Clear,310,2013-01-18 07:35:00
2:55 AM,24.8,18.1,76,30.42,10.0,NW,5.8,-,N/A,,Clear,320,2013-01-18 07:55:00
3:15 AM,24.4,18.0,76,30.42,10.0,NNW,5.8,-,N/A,,Clear,330,2013-01-18 08:15:00
3:35 AM,23.7,13.6,65,30.43,10.0,NNW,6.9,-,N/A,,Clear,340,2013-01-18 08:35:00
3:55 AM,23.0,13.6,67,30.43,10.0,NNW,3.5,-,N/A,,Clear,340,2013-01-18 08:55:00
4:15 AM,22.1,14.0,71,30.44,10.0,NW,3.5,-,N/A,,Clear,320,2013-01-18 09:15:00
4:35 AM,21.7,14.4,73,30.44,10.0,NNW,3.5,-,N/A,,Clear,330,2013-01-18 09:35:00
4:55 AM,21.4,14.0,73,30.44,10.0,Calm,Calm,-,N/A,,Clear,0,2013-01-18 09:55:00
5:15 AM,21.2,13.6,73,30.45,10.0,Calm,Calm,-,N/A,,Clear,0,2013-01-18 10:15:00
5:35 AM,20.8,14.0,75,30.47,10.0,Calm,Calm,-,N/A,,Clear,0,2013-01-18 10:35:00
5:55 AM,19.2,14.7,83,30.47,10.0,Calm,Calm,-,N/A,,Clear,0,2013-01-18 10:55:00
6:15 AM,18.3,14.4,85,30.48,10.0,Calm,Calm,-,N/A,,Clear,0,2013-01-18 11:15:00
6:35 AM,18.5,15.4,88,30.48,10.0,Calm,Calm,-,N/A,,Clear,0,2013-01-18 11:35:00
6:55 AM,18.1,15.3,88,30.49,10.0,Calm,Calm,-,N/A,,Clear,0,2013-01-18 11:55:00
7:15 AM,17.6,14.9,89,30.50,10.0,Calm,Calm,-,N/A,,Clear,0,2013-01-18 12:15:00
7:35 AM,17.1,14.5,90,30.49,10.0,Calm,Calm,-,N/A,,Clear,0,2013-01-18 12:35:00
7:55 AM,17.6,14.9,89,30.50,10.0,North,-9999.0,-,N/A,,Clear,0,2013-01-18 12:55:00
8:15 AM,17.4,14.9,90,30.51,10.0,Calm,Calm,-,N/A,,Clear,0,2013-01-18 13:15:00
8:35 AM,19.6,16.7,89,30.51,10.0,Calm,Calm,-,N/A,,Clear,0,2013-01-18 13:35:00
8:55 AM,21.2,17.1,84,30.51,10.0,Calm,Calm,-,N/A,,Clear,0,2013-01-18 13:55:00
9:35 AM,24.3,16.2,71,30.53,10.0,South,3.5,-,N/A,,Clear,180,2013-01-18 14:35:00
9:55 AM,25.0,17.2,72,30.54,10.0,Calm,Calm,-,N/A,,Clear,0,2013-01-18 14:55:00
10:15 AM,25.3,14.7,64,30.54,10.0,Calm,Calm,-,N/A,,Clear,0,2013-01-18 15:15:00
10:35 AM,25.5,14.2,62,30.54,10.0,West,3.5,-,N/A,,Clear,260,2013-01-18 15:35:00
10:55 AM,27.1,15.3,61,30.54,10.0,SSE,3.5,-,N/A,,Clear,150,2013-01-18 15:55:00
11:15 AM,27.3,15.1,60,30.53,10.0,WSW,4.6,-,N/A,,Clear,250,2013-01-18 16:15:00
11:35 AM,28.6,16.0,59,30.52,10.0,Calm,Calm,-,N/A,,Clear,0,2013-01-18 16:35:00
11:55 AM,28.9,15.8,58,30.50,10.0,South,4.6,-,N/A,,Clear,180,2013-01-18 16:55:00
12:15 PM,29.5,15.8,57,30.49,10.0,SW,4.6,-,N/A,,Clear,230,2013-01-18 17:15:00
12:35 PM,30.6,17.1,57,30.49,10.0,SSW,3.5,-,N/A,,Clear,210,2013-01-18 17:35:00
12:55 PM,31.1,16.5,55,30.48,10.0,SW,6.9,-,N/A,,Clear,220,2013-01-18 17:55:00
1:15 PM,31.3,16.5,54,30.47,10.0,South,5.8,-,N/A,,Clear,180,2013-01-18 18:15:00
1:35 PM,32.0,16.0,52,30.47,10.0,SW,6.9,-,N/A,,Clear,230,2013-01-18 18:35:00
1:55 PM,32.2,16.9,53,30.46,10.0,South,4.6,-,N/A,,Clear,190,2013-01-18 18:55:00
2:15 PM,33.1,17.1,52,30.45,10.0,South,6.9,-,N/A,,Clear,190,2013-01-18 19:15:00
2:35 PM,33.3,17.1,51,30.45,10.0,South,9.2,-,N/A,,Clear,180,2013-01-18 19:35:00
2:55 PM,33.6,17.6,52,30.44,10.0,South,11.5,-,N/A,,Clear,180,2013-01-18 19:55:00
3:15 PM,34.2,17.4,50,30.44,10.0,South,10.4,-,N/A,,Clear,180,2013-01-18 20:15:00
3:35 PM,34.2,17.8,51,30.43,10.0,South,8.1,-,N/A,,Clear,180,2013-01-18 20:35:00
3:55 PM,34.2,17.4,50,30.43,10.0,South,9.2,-,N/A,,Clear,180,2013-01-18 20:55:00
4:15 PM,34.7,17.4,49,30.42,10.0,SSW,6.9,-,N/A,,Clear,200,2013-01-18 21:15:00
4:35 PM,34.5,18.1,51,30.42,10.0,South,10.4,-,N/A,,Clear,190,2013-01-18 21:35:00
4:55 PM,34.2,18.3,52,30.42,10.0,South,5.8,-,N/A,,Clear,190,2013-01-18 21:55:00
5:15 PM,33.6,18.5,54,30.41,10.0,South,6.9,-,N/A,,Clear,190,2013-01-18 22:15:00
5:35 PM,32.5,18.5,56,30.41,10.0,South,6.9,-,N/A,,Clear,190,2013-01-18 22:35:00
5:55 PM,32.2,18.0,56,30.40,10.0,SSW,4.6,-,N/A,,Clear,200,2013-01-18 22:55:00
6:15 PM,32.0,18.0,56,30.40,10.0,South,5.8,-,N/A,,Clear,190,2013-01-18 23:15:00
6:35 PM,32.0,18.0,56,30.40,10.0,SSW,5.8,-,N/A,,Clear,200,2013-01-18 23:35:00
6:55 PM,31.5,18.1,58,30.39,10.0,South,4.6,-,N/A,,Clear,190,2013-01-18 23:55:00
7:15 PM,31.3,18.0,58,30.38,10.0,South,3.5,-,N/A,,Clear,180,2013-01-19 00:15:00
7:35 PM,30.9,18.0,59,30.38,10.0,Calm,Calm,-,N/A,,Clear,0,2013-01-19 00:35:00
7:55 PM,29.8,18.3,62,30.37,10.0,Calm,Calm,-,N/A,,Clear,0,2013-01-19 00:55:00
8:15 PM,31.1,18.3,59,30.36,10.0,South,4.6,-,N/A,,Clear,190,2013-01-19 01:15:00
8:35 PM,31.3,18.7,60,30.36,10.0,South,5.8,-,N/A,,Clear,190,2013-01-19 01:35:00
8:55 PM,31.6,19.0,60,30.35,10.0,South,5.8,-,N/A,,Clear,190,2013-01-19 01:55:00
9:15 PM,31.8,19.4,60,30.34,10.0,South,6.9,-,N/A,,Clear,190,2013-01-19 02:15:00
9:35 PM,31.8,19.9,62,30.34,10.0,SSW,5.8,-,N/A,,Clear,200,2013-01-19 02:35:00
9:55 PM,31.8,20.5,63,30.33,10.0,SSW,6.9,-,N/A,,Clear,200,2013-01-19 02:55:00
10:15 PM,31.6,21.2,65,30.32,10.0,South,5.8,-,N/A,,Clear,190,2013-01-19 03:15:00
10:35 PM,32.0,21.7,66,30.31,10.0,South,8.1,-,N/A,,Clear,190,2013-01-19 03:35:00
10:55 PM,32.0,22.1,67,30.31,10.0,SSW,5.8,-,N/A,,Clear,200,2013-01-19 03:55:00
11:15 PM,32.0,22.6,68,30.30,10.0,South,6.9,-,N/A,,Clear,190,2013-01-19 04:15:00
11:35 PM,32.0,23.0,69,30.29,10.0,South,8.1,-,N/A,,Clear,190,2013-01-19 04:35:00
11:55 PM,32.0,23.5,71,30.29,10.0,South,6.9,-,N/A,,Clear,190,2013-01-19 04:55:00